GW6754 Weather Reports


Display with metric or nautical units.
time (UTC)temp
F
wind
direction
speed
MPH
gust
MPH
rain 1hr
in
rain 24hr
in
rain mn
in
humidity
%
barometer
mb
20260502130228 55 350 2.0 4.0 0.00 1.75 0.00 89 1020.2
20260502123227 53 345 1.0 3.0 0.00 1.94 0.00 91 1019.7
20260502122239 53 9 1.0 4.0 0.00 1.94 0.00 92 1019.5
20260502121224 53 11 1.0 2.0 0.00 1.94 0.00 92 1019.4
20260502120233 52 11 0.0 0.0 0.00 1.94 0.00 92 1019.4
20260502115224 52 10 0.0 0.0 0.00 2.02 0.00 92 1019.2
20260502114231 52 11 0.0 2.0 0.00 2.02 0.00 92 1019.3
20260502113300 53 11 0.0 1.0 0.00 2.02 0.00 92 1019.2
20260502112226 53 11 0.0 2.0 0.00 2.02 0.00 92 1019.0
20260502111232 53 56 0.0 1.0 0.00 2.02 0.00 92 1018.8
20260502110304 53 350 1.0 3.0 0.00 2.02 0.00 92 1018.6
20260502105231 53 21 1.0 3.0 0.00 2.13 0.00 92 1018.5
20260502104258 53 24 1.0 3.0 0.00 2.13 0.00 92 1018.5
20260502103225 53 21 1.0 3.0 0.00 2.13 0.00 92 1018.4
20260502102232 53 19 1.0 2.0 0.00 2.13 0.00 92 1018.3
20260502101241 54 21 1.0 2.0 0.00 2.13 0.00 92 1018.2
20260502100229 54 20 1.0 2.0 0.00 2.13 0.00 91 1018.1
20260502091228 55 51 0.0 2.0 0.00 2.21 0.00 91 1017.1
20260502090237 55 76 0.0 2.0 0.00 2.21 0.00 90 1016.9
20260502071245 56 36 1.0 4.0 0.00 2.89 0.00 90 1016.6
20260502070233 56 37 1.0 4.0 0.00 2.89 0.00 90 1016.6
20260502065241 56 37 1.0 3.0 0.00 2.94 0.00 90 1016.7
20260502064231 56 50 1.0 3.0 0.00 2.94 0.00 90 1016.7
20260502063300 56 1 1.0 3.0 0.00 2.94 0.00 90 1016.7
20260502062226 56 23 1.0 4.0 0.00 2.94 0.00 90 1016.7
20260502061233 56 17 0.0 2.0 0.00 2.94 0.00 90 1016.7
20260502060225 56 182 1.0 6.0 0.00 2.94 0.00 91 1016.7
20260502055232 56 325 1.0 6.0 0.00 2.98 0.00 90 1016.6
20260502054238 56 350 1.0 4.0 0.00 2.98 0.00 90 1016.7
20260502053226 56 324 1.0 5.0 0.00 2.98 0.00 90 1016.6
20260502052239 56 32 1.0 4.0 0.00 2.98 0.00 90 1016.5
20260502051304 56 13 2.0 6.0 0.00 2.98 0.00 90 1016.6
20260502050231 56 358 2.0 6.0 0.00 2.98 0.00 91 1016.3
20260502045239 56 345 1.0 4.0 0.00 3.32 2.98 91 1016.2
20260502044229 56 6 2.0 4.0 0.00 3.32 2.98 92 1016.2
20260502043258 56 345 2.0 6.0 0.00 3.32 2.98 92 1016.1
20260502042226 56 356 2.0 4.0 0.00 3.32 2.98 92 1016.1
20260502041233 56 340 1.0 3.0 0.00 3.32 2.98 93 1016.2
20260502040227 57 31 1.0 4.0 0.00 3.32 2.98 93 1016.2
20260502035255 57 19 2.0 4.0 0.00 3.32 2.98 93 1016.1
20260502034240 57 350 2.0 4.0 0.00 3.32 2.98 93 1015.9
20260502033229 57 350 1.0 5.0 0.00 3.32 2.98 94 1015.9
20260502032257 57 340 2.0 4.0 0.00 3.32 2.98 94 1016.0
20260502031247 57 340 2.0 5.0 0.00 3.32 2.98 94 1015.9
20260502030235 57 354 2.0 5.0 0.00 3.32 2.98 94 1015.8
20260502025243 57 303 2.0 6.0 0.00 3.32 2.98 94 1015.6
20260502024228 57 355 2.0 4.0 0.00 3.32 2.98 94 1015.4
20260502023242 57 33 2.0 5.0 0.00 3.32 2.98 94 1015.1
20260502022228 57 345 2.0 8.0 0.01 3.32 2.98 94 1014.7
20260502021254 57 5 2.0 6.0 0.02 3.32 2.98 94 1014.2
20260502020242 57 354 2.0 4.0 0.02 3.32 2.98 94 1013.9
20260502015234 57 340 1.0 6.0 0.04 3.32 2.98 94 1013.8
20260502014300 58 345 2.0 4.0 0.06 3.32 2.98 94 1013.4
20260502013228 58 4 1.0 3.0 0.11 3.32 2.98 94 1013.7
20260502012236 58 359 2.0 6.0 0.12 3.31 2.97 94 1013.5
20260502011225 58 354 2.0 6.0 0.12 3.30 2.96 94 1013.6
20260502010234 59 33 1.0 5.0 0.12 3.30 2.96 94 1013.4
20260502005241 59 1 2.0 4.0 0.12 3.28 2.94 94 1013.0
20260502004227 59 38 2.0 6.0 0.12 3.26 2.92 94 1013.2
20260502003240 60 350 2.0 4.0 0.08 3.20 2.86 95 1013.5
20260502002228 60 333 1.0 4.0 0.10 3.19 2.85 95 1014.1
20260502001235 60 329 1.0 4.0 0.14 3.18 2.84 94 1013.0
20260502000243 60 327 2.0 4.0 0.28 3.18 2.84 94 1012.4
20260501235235 60 22 1.0 5.0 0.26 3.16 2.82 95 1012.6
20260501234240 60 13 1.0 4.0 0.24 3.14 2.80 95 1013.0
20260501233229 60 22 2.0 4.0 0.23 3.12 2.78 94 1013.0
20260501232236 60 30 1.0 3.0 0.27 3.09 2.75 94 1013.0
20260501231246 61 354 2.0 6.0 0.22 3.04 2.70 94 1012.2
20260501230235 61 354 2.0 6.0 0.08 2.90 2.56 95 1012.5
20260501225305 61 350 1.0 7.0 0.08 2.90 2.56 95 1010.8
20260501224226 61 61 3.0 10.0 0.08 2.90 2.56 94 1010.2
20260501223234 61 47 1.0 10.0 0.07 2.89 2.55 94 1010.6
20260501222246 61 46 2.0 4.0 0.00 2.82 2.48 94 1011.2
20260501221229 61 34 2.0 7.0 0.01 2.82 2.48 94 1010.4
20260501220238 61 47 2.0 6.0 0.02 2.82 2.48 94 1009.8
20260501215246 61 29 2.0 11.0 0.05 2.82 2.48 94 1010.1
20260501214251 61 355 3.0 6.0 0.13 2.82 2.48 94 1010.5
20260501213303 61 15 2.0 5.0 0.15 2.82 2.48 94 1010.5
20260501212231 62 340 2.0 7.0 0.18 2.82 2.48 94 1010.4
20260501211256 62 354 2.0 8.0 0.20 2.81 2.47 95 1011.0
20260501210225 63 350 2.0 5.0 0.20 2.80 2.46 95 1010.7
20260501205236 63 329 2.0 4.0 0.18 2.77 2.43 95 1011.0
20260501204242 63 2 1.0 4.0 0.11 2.69 2.35 95 1010.4
20260501203230 63 359 3.0 5.0 0.10 2.67 2.33 95 1010.2
20260501202258 63 13 2.0 4.0 0.13 2.64 2.30 95 1010.1
20260501201228 63 350 2.0 5.0 0.12 2.61 2.27 95 1009.9
20260501200236 63 9 1.0 4.0 0.12 2.60 2.26 95 1010.0
20260501195243 63 350 2.0 6.0 0.11 2.59 2.25 95 1009.5
20260501194229 63 7 2.0 6.0 0.11 2.58 2.24 95 1008.5
20260501193258 63 31 1.0 4.0 0.11 2.57 2.23 95 1010.1
20260501192229 63 360 1.0 3.0 0.07 2.51 2.17 95 1011.0
20260501191256 63 26 1.0 4.0 0.14 2.49 2.15 95 1010.1
20260501190243 63 26 1.0 4.0 0.14 2.48 2.14 95 1009.9
20260501185231 63 30 1.0 4.0 0.15 2.48 2.14 95 1010.0
20260501184301 63 31 0.0 6.0 0.19 2.47 2.13 95 1010.1
20260501183230 63 71 0.0 3.0 0.20 2.46 2.12 95 1010.5
20260501182238 63 30 0.0 7.0 0.19 2.44 2.10 95 1010.0
20260501181224 63 40 1.0 3.0 0.12 2.35 2.01 95 1009.8
20260501180257 63 356 2.0 8.0 0.12 2.34 2.00 95 1009.1
20260501175241 62 34 2.0 8.0 0.11 2.33 1.99 95 1008.8
20260501174228 62 47 1.0 11.0 0.06 2.28 1.94 95 1008.9
20260501173236 62 46 4.0 11.0 0.05 2.26 1.92 95 1008.7
20260501172227 62 2 2.0 5.0 0.05 2.25 1.91 95 1010.3
20260501171234 62 354 2.0 5.0 0.05 2.23 1.89 95 1011.3
20260501170243 62 358 2.0 4.0 0.09 2.22 1.88 95 1011.3
20260501165230 63 345 2.0 4.0 0.14 2.22 1.88 95 1012.3
20260501164240 63 358 2.0 6.0 0.21 2.22 1.88 95 1011.3
20260501163229 63 354 2.0 4.0 0.30 2.21 1.87 95 1011.0
20260501162236 63 4 2.0 5.0 0.34 2.20 1.86 95 1011.9
20260501161242 63 356 2.0 5.0 0.33 2.18 1.84 95 1011.4
20260501160255 63 340 1.0 4.0 0.29 2.13 1.79 95 1012.9
20260501155242 63 40 2.0 4.0 0.25 2.08 1.74 95 1013.3
20260501154229 63 360 2.0 5.0 0.17 2.00 1.66 95 1013.0
20260501153238 63 355 3.0 5.0 0.08 1.91 1.57 95 1013.1
20260501152230 63 358 2.0 5.0 0.03 1.86 1.52 95 1012.8
20260501151235 63 345 1.0 4.0 0.03 1.85 1.51 95 1012.1
20260501150243 63 25 2.0 6.0 0.02 1.84 1.50 95 1011.7
20260501145251 63 49 3.0 10.0 0.02 1.83 1.49 95 1011.4